STARLINK-32427, 61848

Orbit data source: Space-Track

STARLINK-32427, 61848 is a payload satellite owned by SpaceX/Seattle (US) in LEO that was launched on Thu, 07 Nov 2024 UTC via an FALCON 9 launch vehicle from the Air Force Eastern Test Range (AFETR). Payload-class satellites include a variety of spacecraft equipped with specific instruments for various scientific and technological missions. These include communications satellites like Starlink; space stations such as the ISS; scientific satellites like the Hubble; Earth observation satellites from companies like Planet Labs, Umbra, and HawkEye 360; GPS; miniature CubeSats for education and research; and military/defense satellites.

Loading next visibility...
Identifier
61848, 2024-202D
Orbit
LEO
Country
Flag of USUS
Related business
Manufacturer
SpaceX/Seattle
Mission
Operational Commercial Communications
Bus & Motor
STARLINK V2M, Unknown motor
Mass
730 kg wet, ~700 kg dry
Launch date (UTC)
2024-11-07 (2 years ago)
Launch vehicle
FALCON 9
Launch site
Air Force Eastern Test Range (AFETR)
Object type
Payload
Rocket body
Debris
Shape & HBR
Box + 2 Pan, 17.7 m
Radar Cross Section
33.884 m², Large (>1 m²)

Expand to show TLE details & history
Last TLE update: 1 day ago

TLE from 1 day ago
0 STARLINK-32427
1 61848U 24202D   26266.14191313  .00001403  00000-0  60484-4 0  9996
2 61848  43.0008 191.7901 0001111 296.9998  63.0740 15.27584852105652
Epoch: 2026-09-23T03:24Z
TLE epoch observation values (Epoch: 2026-09-23T03:24:21.294Z)
Latitude
-0.00003°
Longitude
138.70406°
Altitude
482.465 km
Speed
7.626 km/s
True Right ascension
12h 47m 09s
True Declination
0° 00' 00"
Sunlit
Object was in daylight at epoch
Visualization orbit readout
Latitude
Unknown
Longitude
Unknown
Altitude
Unknown
Speed
Unknown
Apparent Right ascension
Unknown
Apparent Declination
Unknown
Sunlit
N/A
Visualization observer readout
Local Sidereal Time
21:44:37
Azimuth
Unknown
Elevation
Unknown
Doppler factor
Unknown
Orbital elements
Apogee altitude
485.742 km
Perigee altitude
484.217 km
Semi-major axis
6,863.117 km
Eccentricity
0.00011
Inclination
43.0008°
RAAN
191.7901°
Arg. of periapsis
296.9998°
True anomaly
63.08535°
Mean anomaly
63.074°
Eccentric anomaly
63.07968°
Mean motion
3.81734 °/min
Orbital period
94.31 mins
BSTAR
0.000060484
Loading maneuver chart data...
Computing Atmospheric mass density...
Loading historical data...
Loading historical data...
Loading historical data...
Loading historical data...
Loading historical data...
Loading historical data...
Loading historical data...

Documentation

Showing up to 5 results
|